Stündliche Wetter Dabeiba

Heute, 29 Oktober, Donnerstag

Zeit Temperatur Niederschläge Wind Luftdruck Luftfeuchtigkeit
00:00 +20°C° 0.4 mm 0 m/S 684 mmHg 98%
01:00 +20°C° 0.4 mm 0 m/S 684 mmHg 98%
02:00 +20°C° 0.3 mm 0 m/S 684 mmHg 98%
03:00 +20°C° 0.3 mm 0 m/S 683 mmHg 98%
04:00 +20°C° 0.3 mm 0 m/S 683 mmHg 97%
05:00 +20°C° 0.1 mm 0 m/S 684 mmHg 97%
06:00 +22°C° 0.1 mm 1 m/S 684 mmHg 96%
07:00 +23°C° 0.1 mm 1 m/S 685 mmHg 96%
08:00 +24°C° 0.2 mm 1 m/S 685 mmHg 89%
09:00 +26°C° 0.2 mm 1 m/S 686 mmHg 83%
10:00 +27°C° 0.2 mm 1 m/S 687 mmHg 77%
11:00 +27°C° 0.4 mm 1 m/S 686 mmHg 78%
12:00 +27°C° 0.4 mm 1 m/S 685 mmHg 79%
13:00 +27°C° 0.4 mm 1 m/S 684 mmHg 81%
14:00 +26°C° 1.6 mm 1 m/S 683 mmHg 86%
15:00 +25°C° 1.6 mm 1 m/S 683 mmHg 91%
16:00 +25°C° 1.6 mm 1 m/S 682 mmHg 96%
17:00 +24°C° 0.8 mm 1 m/S 683 mmHg 97%
18:00 +21°C° 0.8 mm 0 m/S 683 mmHg 97%
19:00 +20°C° 0.8 mm 0 m/S 684 mmHg 98%
20:00 +20°C° 0.7 mm 0 m/S 684 mmHg 98%
21:00 +20°C° 0.7 mm 0 m/S 685 mmHg 98%
22:00 +20°C° 0.7 mm 0 m/S 685 mmHg 98%
23:00 +20°C° 0.2 mm 0 m/S 685 mmHg 97%

Morgen, 30 Oktober, Freitag

Zeit Temperatur Niederschläge Wind Luftdruck Luftfeuchtigkeit
00:00 +21°C° 0.2 mm 1 m/S 684 mmHg 97%
01:00 +21°C° 0.2 mm 1 m/S 684 mmHg 97%
02:00 +21°C° 0 mm 1 m/S 684 mmHg 97%
03:00 +21°C° 0 mm 1 m/S 684 mmHg 96%
04:00 +21°C° 0 mm 1 m/S 684 mmHg 96%
05:00 +21°C° 0 mm 1 m/S 684 mmHg 95%
06:00 +22°C° 0 mm 1 m/S 685 mmHg 95%
07:00 +22°C° 0 mm 1 m/S 685 mmHg 94%
08:00 +24°C° 0.1 mm 1 m/S 686 mmHg 86%
09:00 +26°C° 0.1 mm 1 m/S 686 mmHg 79%
10:00 +28°C° 0.1 mm 1 m/S 687 mmHg 72%
11:00 +27°C° 1.1 mm 1 m/S 686 mmHg 78%
12:00 +27°C° 1.1 mm 1 m/S 685 mmHg 84%
13:00 +26°C° 1.1 mm 1 m/S 684 mmHg 90%
14:00 +26°C° 1.5 mm 1 m/S 684 mmHg 92%
15:00 +25°C° 1.5 mm 1 m/S 683 mmHg 93%
16:00 +25°C° 1.5 mm 1 m/S 683 mmHg 95%
17:00 +24°C° 0.6 mm 1 m/S 683 mmHg 96%
18:00 +23°C° 0.6 mm 1 m/S 684 mmHg 97%
19:00 +20°C° 0.6 mm 0 m/S 684 mmHg 98%
20:00 +20°C° 0.5 mm 0 m/S 685 mmHg 98%
21:00 +20°C° 0.5 mm 0 m/S 685 mmHg 98%
22:00 +20°C° 0.5 mm 0 m/S 686 mmHg 98%
23:00 +20°C° 0.8 mm 0 m/S 685 mmHg 98%

übermorgen, 31 Oktober, Samstag

Zeit Temperatur Niederschläge Wind Luftdruck Luftfeuchtigkeit
00:00 +20°C° 0.8 mm 0 m/S 685 mmHg 98%
01:00 +20°C° 0.8 mm 0 m/S 685 mmHg 98%
02:00 +20°C° 0.5 mm 0 m/S 685 mmHg 98%
03:00 +19°C° 0.5 mm 0 m/S 685 mmHg 98%
04:00 +19°C° 0.5 mm 0 m/S 685 mmHg 98%
05:00 +20°C° 0.1 mm 0 m/S 685 mmHg 97%
06:00 +20°C° 0.1 mm 0 m/S 685 mmHg 96%
07:00 +20°C° 0.1 mm 0 m/S 686 mmHg 95%
08:00 +21°C° 0.5 mm 0 m/S 686 mmHg 93%
09:00 +24°C° 0.5 mm 1 m/S 686 mmHg 91%
10:00 +26°C° 0.5 mm 1 m/S 687 mmHg 88%
11:00 +26°C° 1.7 mm 1 m/S 686 mmHg 90%
12:00 +26°C° 1.7 mm 1 m/S 685 mmHg 91%
13:00 +25°C° 1.7 mm 1 m/S 684 mmHg 93%
14:00 +25°C° 1.8 mm 1 m/S 684 mmHg 94%
15:00 +25°C° 1.8 mm 1 m/S 684 mmHg 96%
16:00 +24°C° 1.8 mm 1 m/S 683 mmHg 97%
17:00 +24°C° 1 mm 1 m/S 684 mmHg 98%
18:00 +23°C° 1 mm 1 m/S 684 mmHg 98%
19:00 +20°C° 1 mm 0 m/S 684 mmHg 99%
20:00 +20°C° 1.2 mm 0 m/S 685 mmHg 99%
21:00 +20°C° 1.2 mm 0 m/S 685 mmHg 99%
22:00 +20°C° 1.2 mm 0 m/S 685 mmHg 99%
23:00 +20°C° 3.2 mm 0 m/S 685 mmHg 99%

1 November, Sonntag

Zeit Temperatur Niederschläge Wind Luftdruck Luftfeuchtigkeit
00:00 +20°C° 3.2 mm 0 m/S 685 mmHg 99%
01:00 +20°C° 3.2 mm 0 m/S 684 mmHg 99%
02:00 +20°C° 4.9 mm 0 m/S 684 mmHg 99%
03:00 +20°C° 4.9 mm 0 m/S 684 mmHg 99%
04:00 +20°C° 4.9 mm 0 m/S 684 mmHg 99%
05:00 +20°C° 2.3 mm 0 m/S 684 mmHg 99%
06:00 +20°C° 2.3 mm 0 m/S 685 mmHg 98%
07:00 +21°C° 2.3 mm 1 m/S 685 mmHg 98%
08:00 +22°C° 1.1 mm 1 m/S 685 mmHg 97%
09:00 +20°C° 1.1 mm 0 m/S 686 mmHg 96%
10:00 +21°C° 1.1 mm 0 m/S 686 mmHg 95%
11:00 +23°C° 0.3 mm 1 m/S 685 mmHg 93%
12:00 +24°C° 0.3 mm 1 m/S 685 mmHg 90%
13:00 +25°C° 0.3 mm 1 m/S 684 mmHg 88%
14:00 +25°C° 0.7 mm 1 m/S 684 mmHg 89%
15:00 +25°C° 0.7 mm 1 m/S 683 mmHg 91%
16:00 +25°C° 0.7 mm 1 m/S 683 mmHg 93%
17:00 +24°C° 0.9 mm 1 m/S 683 mmHg 95%
18:00 +23°C° 0.9 mm 1 m/S 684 mmHg 97%
19:00 +22°C° 0.9 mm 1 m/S 684 mmHg 98%
20:00 +22°C° 0.6 mm 1 m/S 684 mmHg 98%
21:00 +22°C° 0.6 mm 1 m/S 685 mmHg 98%
22:00 +22°C° 0.6 mm 1 m/S 685 mmHg 98%
23:00 +22°C° 1.1 mm 1 m/S 685 mmHg 98%

2 November, Montag

Zeit Temperatur Niederschläge Wind Luftdruck Luftfeuchtigkeit
00:00 +21°C° 1.1 mm 1 m/S 684 mmHg 98%
01:00 +21°C° 1.1 mm 1 m/S 684 mmHg 98%
02:00 +21°C° 0.4 mm 1 m/S 684 mmHg 97%
03:00 +21°C° 0.4 mm 1 m/S 684 mmHg 97%
04:00 +21°C° 0.4 mm 1 m/S 684 mmHg 97%
05:00 +21°C° 0 mm 1 m/S 684 mmHg 96%
06:00 +21°C° 0 mm 1 m/S 684 mmHg 96%
07:00 +22°C° 0 mm 1 m/S 685 mmHg 95%
08:00 +23°C° 0.1 mm 1 m/S 685 mmHg 90%
09:00 +25°C° 0.1 mm 1 m/S 686 mmHg 84%
10:00 +26°C° 0.1 mm 1 m/S 686 mmHg 78%
11:00 +26°C° 0.9 mm 1 m/S 685 mmHg 83%
12:00 +25°C° 0.9 mm 1 m/S 684 mmHg 89%
13:00 +25°C° 0.9 mm 1 m/S 684 mmHg 94%
14:00 +24°C° 0.9 mm 1 m/S 683 mmHg 95%
15:00 +23°C° 0.9 mm 1 m/S 683 mmHg 97%
16:00 +23°C° 0.9 mm 1 m/S 682 mmHg 99%
17:00 +22°C° 0.6 mm 1 m/S 683 mmHg 99%
18:00 +22°C° 0.6 mm 1 m/S 683 mmHg 99%
19:00 +22°C° 0.6 mm 1 m/S 683 mmHg 99%
20:00 +22°C° 0.3 mm 1 m/S 684 mmHg 99%
21:00 +22°C° 0.3 mm 1 m/S 684 mmHg 98%
22:00 +22°C° 0.3 mm 1 m/S 684 mmHg 98%
23:00 +22°C° 0.4 mm 1 m/S 684 mmHg 98%

3 November, Dienstag

Zeit Temperatur Niederschläge Wind Luftdruck Luftfeuchtigkeit
00:00 +22°C° 0.4 mm 1 m/S 684 mmHg 98%
01:00 +21°C° 0.4 mm 1 m/S 684 mmHg 98%
02:00 +21°C° 0.4 mm 1 m/S 684 mmHg 98%
03:00 +21°C° 0.4 mm 1 m/S 683 mmHg 98%
04:00 +21°C° 0.4 mm 1 m/S 683 mmHg 98%
05:00 +21°C° 0.2 mm 1 m/S 684 mmHg 98%
06:00 +22°C° 0.2 mm 1 m/S 684 mmHg 97%
07:00 +22°C° 0.2 mm 1 m/S 685 mmHg 97%
08:00 +23°C° 0.1 mm 1 m/S 685 mmHg 91%
09:00 +25°C° 0.1 mm 1 m/S 685 mmHg 85%
10:00 +26°C° 0.1 mm 1 m/S 686 mmHg 78%
11:00 +26°C° 0.7 mm 1 m/S 685 mmHg 81%
12:00 +26°C° 0.7 mm 1 m/S 684 mmHg 84%
13:00 +26°C° 0.7 mm 2 m/S 683 mmHg 87%
14:00 +25°C° 0.9 mm 1 m/S 683 mmHg 89%
15:00 +25°C° 0.9 mm 1 m/S 683 mmHg 91%
16:00 +24°C° 0.9 mm 1 m/S 682 mmHg 93%
17:00 +23°C° 0.4 mm 1 m/S 683 mmHg 95%
18:00 +23°C° 0.4 mm 1 m/S 683 mmHg 97%
19:00 +20°C° 0.4 mm 0 m/S 683 mmHg 98%
20:00 +20°C° 0 mm 0 m/S 684 mmHg 98%
21:00 +19°C° 0 mm 0 m/S 684 mmHg 98%
22:00 +19°C° 0 mm 0 m/S 684 mmHg 98%
23:00 +19°C° 0 mm 0 m/S 684 mmHg 98%
Mehr zeigen

Wir brauchen deine Erlaubnis

Meteoprog und unser Service Anbieter werden persönliche Daten aufbewahren, so wie Cookies, Geräte Bezeichnung oder ähnliche Technologien von deinem Gerät und Prozess, so wie Persönliche Daten Inhalte und Werbungen, genauso wie social Media und den Verkehr zu analysieren.

  • Aufbewahrung und/oder Zugang zu deiner Geräte Informationen.

    Cookies, Geräte Bezeichnung oder andere Informationen, können aufbewahrt oder Zugang zu deinem Gerät erhalten, für den Grund, der oben angegeben wird.

  • Personalisierte Werbung und Inhalte, Messungen, Einblick in das Publikum und Produkt Entwicklung.

    Werbungen und Inhalte können personalisiert werden, basierend auf ein Profil. Mehr Daten können besser personalisierte Werbungen und Inhalte hinzufügen. Werbung und Inhalte können gezeigt und gemessen werden. Einblicke über das Publikum, welche die Werbung gesehen haben und den Inhalt, können abgeleitet werden. So wie Daten können genutzt werden, um es zu verbessern oder die Benutzer Erfahrung zu verbessern das System und die Software.

Wenn du “Ich stimme zu” klickst, erlaubst du uns, die Cookies zu benutzen die Geräte Bezeichnung, den Web oder ähnliche Technologien zu benutzen. Deine Settings, können in deinem Gerät bei deinem Browser geändert werden.

Für den bestimmten Zweck, berechtigten Interessen beruhen darauf, mehr als auf den Inhalt. Du kannst mehr darüber in unseren Privaten und Cookie Politik lesen.